Skip Page Navigation
NASA JPL Caltech
NASA Logo - Jet Propulsion Laboratory + View the NASA Portal
+ Center for Near-Earth Object Studies
JPL Home Earth Solar System Stars & Galaxies Technology
JPL Solar System Dynamics
BODIES ORBITS EPHEMERIDES TOOLS PHYSICAL DATA DISCOVERY FAQ SITE MAP
JPL Small-Body Database Browser
Search: [ help ]  
109419 (2001 QM192)
Classification: Main-belt Asteroid          SPK-ID: 2109419
Ephemeris | Orbit Diagram | Orbital Elements | Mission Design | Physical Parameters | Discovery Circumstances ]

[ show orbit diagram ]
Orbital Elements at Epoch 2459000.5 (2020-May-31.0) TDB
Reference: JPL 21 (heliocentric ecliptic J2000)
 Element Value Uncertainty (1-sigma)   Units 
e .1488231132812252 4.8194e-08  
a 2.637136783692306 1.5152e-08 au
q 2.24466987739478 1.2881e-07 au
i 11.70880757346407 4.8239e-06 deg
node 263.5234285075703 3.1133e-05 deg
peri 18.13171420415054 3.7528e-05 deg
M 193.5728588813565 2.2524e-05 deg
tp 2459723.634470016916
(2022-May-24.13447002)
9.9128e-05 TDB
period 1564.218476964076
4.28
1.3481e-05
3.691e-08
d
yr
n .230146878650039 1.9835e-09 deg/d
Q 3.029603689989832 1.7406e-08 au
  Orbit Determination Parameters
   # obs. used (total)      614  
   data-arc span      9576 days (26.22 yr)  
   first obs. used      1993-11-09  
   last obs. used      2020-01-28  
   planetary ephem.      DE431  
   SB-pert. ephem.      SB431-N16  
   condition code      0  
   norm. resid. RMS      .57723  
   source      ORB  
   producer      Otto Matic  
   solution date      2020-Feb-24 03:25:25  

Additional Information
 Earth MOID = 1.23121 au 
 Jupiter MOID = 2.10577 au 
 T_jup = 3.352 
[ show covariance matrix ]

Ephemeris | Orbit Diagram | Orbital Elements | Mission Design | Physical Parameters | Discovery Circumstances ]

Physical Parameter Table
Parameter Symbol Value Units Sigma Reference Notes
absolute magnitude H 15.2   n/a MPO366462  

109419 (2001 QM192)          Discovered 2001-Aug-22 by LINEAR at Socorro
Reference: 20051019/Numbers.arcLast Updated: 2005-10-26
Ephemeris | Orbit Diagram | Orbital Elements | Mission Design | Physical Parameters | Discovery Circumstances ]
ABOUT SSD CREDITS/AWARDS PRIVACY/COPYRIGHT GLOSSARY LINKS
FirstGov 2020-Aug-04 12:06 UT
(server date/time)  
NASA Home Page
Site Manager:   Ryan S. Park
Webmaster  Alan B. Chamberlin